Location: Cossonay
(46.5833°N, 6.4167°E)
Time: 22:31:27
(UTC+00:00)

CBERS-1 - Pass Details

Date: 05 October 2020
Orbit: 770 x 777 km, 98.6° (Epoch: 22 October)

Event Time Altitude Azimuth Distance (km) Brightness Sun altitude
Rises 02:52:35 0° 6° (N) 3,260 7.7 -28.6°
Reaches altitude 10° 02:55:04 10° 358° (N) 2,329 6.7 -28.2°
Enters shadow 02:57:29 24° 338° (NNW) 1,568 5.6 -27.9°
